Location: Lake Harris Campground
(43.9775°N, 74.1317°W)
Time: 13:30:37
(UTC-04:00)

ISS - All Passes

Search period start: 05 July 2015 00:00
Search period end: 15 July 2015 00:00
Orbit: 398 x 403 km, 51.6° (Epoch: 05 July)

Date Brightness Start Highest point End Pass type
(mag) Time Alt. Az. Time Alt. Az. Time Alt. Az.
05 Jul - 08:31:47 10° SW 08:35:00 65° SE 08:38:14 10° ENE daylight
05 Jul - 10:08:43 10° WNW 10:11:36 28° NNW 10:14:29 10° NE daylight
05 Jul - 11:46:09 10° NW 11:48:41 21° N 11:51:15 10° NE daylight
05 Jul - 13:22:33 10° NW 13:25:40 42° NNE 13:28:46 10° E daylight
05 Jul - 14:59:05 10° WNW 15:01:59 30° SW 15:04:52 10° SSE daylight
06 Jul - 07:38:35 10° SSW 07:41:33 34° SE 07:44:33 10° ENE daylight
06 Jul - 09:14:50 10° W 09:17:55 39° NNW 09:21:00 10° NE daylight
06 Jul - 10:52:23 10° NW 10:54:55 20° N 10:57:28 10° NE daylight
06 Jul - 12:29:05 10° NW 12:31:59 30° NNE 12:34:55 10° E daylight
06 Jul - 14:05:21 10° WNW 14:08:33 57° SW 14:11:44 10° SE daylight
07 Jul - 06:45:51 10° S 06:48:10 19° SE 06:50:33 10° E daylight
07 Jul - 08:21:04 10° WSW 08:24:18 62° NNW 08:27:32 10° NE daylight
07 Jul - 09:58:30 10° WNW 10:01:08 22° N 10:03:47 10° NE daylight
07 Jul - 11:35:32 10° NW 11:38:16 24° NNE 11:40:59 10° ENE daylight
07 Jul - 13:11:47 10° WNW 13:15:02 77° NNE 13:18:16 10° ESE daylight
07 Jul - 14:49:10 10° W 14:51:04 14° SW 14:52:53 10° SSW daylight
08 Jul - 07:27:30 10° SW 07:30:44 75° SSE 07:33:59 10° ENE daylight
08 Jul - 09:04:32 10° WNW 09:07:22 27° NNW 09:10:13 10° NE daylight
08 Jul - 10:41:55 10° NW 10:44:28 21° N 10:47:02 10° ENE daylight
08 Jul - 12:18:16 10° NW 12:21:25 46° NNE 12:24:33 10° E daylight
08 Jul - 13:54:54 10° WNW 13:57:42 26° SW 14:00:27 10° SSE daylight
09 Jul - 06:34:11 10° SSW 06:37:13 39° SE 06:40:17 10° ENE daylight
09 Jul - 08:10:36 10° W 08:13:39 36° NNW 08:16:42 10° NE daylight
09 Jul - 09:48:08 10° NW 09:50:40 20° N 09:53:12 10° NE daylight
09 Jul - 11:24:45 10° NW 11:27:43 32° NNE 11:30:41 10° E daylight
09 Jul - 13:01:04 10° WNW 13:04:13 50° SW 13:07:22 10° SE daylight
10 Jul - 05:41:16 10° S 05:43:47 21° SE 05:46:20 10° E daylight
10 Jul - 07:16:46 10° WSW 07:19:58 55° NNW 07:23:11 10° NE daylight
10 Jul - 08:54:13 10° WNW 08:56:51 22° N 08:59:27 10° NE daylight
10 Jul - 10:31:12 10° NW 10:33:57 25° NNE 10:36:43 10° ENE daylight
10 Jul - 12:07:25 10° WNW 12:10:41 87° NNE 12:13:55 10° ESE daylight
10 Jul - 13:45:07 10° WSW 13:46:40 13° SW 13:48:07 10° SSW daylight
11 Jul - 04:49:19 10° SSE 04:50:23 11° SE 04:51:33 10° ESE visible
11 Jul - 06:23:06 10° SW 06:26:20 85° SSE 06:29:36 10° ENE daylight
11 Jul - 08:00:14 10° WNW 08:03:02 26° NNW 08:05:49 10° NE daylight
11 Jul - 09:37:32 10° NW 09:40:08 21° N 09:42:43 10° ENE daylight
11 Jul - 11:13:51 10° NW 11:17:02 51° NNE 11:20:13 10° ESE daylight
11 Jul - 12:50:35 10° W 12:53:16 23° SW 12:55:53 10° SSE daylight
12 Jul - 05:29:40 10° SW 05:32:47 45° SE 05:35:54 10° ENE daylight
12 Jul - 07:06:14 10° W 07:09:14 33° NNW 07:12:15 10° NE daylight
12 Jul - 08:43:45 10° NW 08:46:17 20° N 08:48:48 10° NE daylight
12 Jul - 10:20:18 10° NW 10:23:19 34° NNE 10:26:19 10° E daylight
12 Jul - 11:56:39 10° WNW 11:59:46 44° SW 12:02:51 10° SE daylight
13 Jul - 04:36:37 10° SSW 04:39:16 24° SE 04:41:59 10° E visible
13 Jul - 06:12:20 10° WSW 06:15:31 50° NNW 06:18:41 10° NE daylight
13 Jul - 07:49:49 10° WNW 07:52:24 21° N 07:55:00 10° NE daylight
13 Jul - 09:26:43 10° NW 09:29:30 26° NNE 09:32:19 10° ENE daylight
13 Jul - 11:02:57 10° WNW 11:06:12 83° SSW 11:09:26 10° SE daylight
13 Jul - 12:41:06 10° WSW 12:42:08 11° SW 12:43:04 10° SSW daylight
14 Jul - 03:44:17 10° SSE 03:45:49 13° SE 03:47:27 10° ESE visible
14 Jul - 05:18:34 10° WSW 05:21:49 86° NNW 05:25:05 10° ENE daylight
14 Jul - 06:55:47 10° WNW 06:58:33 25° NNW 07:01:18 10° NE daylight
14 Jul - 08:33:02 10° NW 08:35:39 22° N 08:38:16 10° ENE daylight
14 Jul - 10:09:19 10° NW 10:12:32 56° NNE 10:15:43 10° ESE daylight
14 Jul - 11:46:10 10° W 11:48:42 21° SW 11:51:11 10° S daylight
